Location: Berg
(48.5667°N, 13.9833°E)
Time: 18:02:38
(UTC+00:00)

STARLINK-1236 - Pass Details

Date: 09 April 2020
Orbit: 549 x 550 km, 53.0° (Epoch: 26 May)

Event Time Altitude Azimuth Distance (km) Brightness Sun altitude
Rises 19:17:33 0° 295° (WNW) 2,732 9.1 -14.7°
Reaches altitude 10° 19:19:48 10° 296° (WNW) 1,836 7.7 -15.0°
Maximum altitude 19:23:59 86° 24° (NNE) 560 3.6 -15.6°
Enters shadow 19:25:57 31° 113° (ESE) 994 4.3 -15.8°
